Location: Laverne
(36.7100°N, 99.8930°W)
Time: 10:11:32
(UTC-06:00)

Meteor 1-31 Rocket - Pass Details

Date: 19 October 2017
Orbit: 522 x 549 km, 97.5° (Epoch: 18 November)

Event Time Altitude Azimuth Distance (km) Brightness Sun altitude
Rises 06:11:57 0° 11° (N) 2,658 6.5 -20.5°
Reaches altitude 10° 06:14:03 10° 10° (N) 1,764 5.5 -20.1°
Maximum altitude 06:17:51 84° 283° (WNW) 530 2.6 -19.4°
Drops below altitude 10° 06:21:38 10° 195° (SSW) 1,752 5.2 -18.6°
Enters shadow 06:23:18 - 195° (SSW) 2,457 6.0 -18.3°
